Location: ?????? ??????
(41.8251°N, 43.9673°E)
Time: 06:51:13
(UTC+00:00)

Daily predictions for brighter satellites

Satellite Brightness Start Highest point End
(mag) Time Altitude Azimuth Time Altitude Azimuth Time Altitude Azimuth
MetOp-A 3.9 17:11:33 10° S 17:15:44 70° WSW 17:20:19 10° NNW
Lacrosse 5 3.6 17:11:57 10° NNW 17:16:10 25° NNE 17:20:21 10° E
GENESIS II 4.4 17:13:44 10° NNW 17:17:47 65° NE 17:21:48 10° SE
BREEZE-M DEB (TANK) 1.9 17:17:06 10° WNW 17:19:12 59° SSW 17:21:59 10° SE
DELTA 2 R/B (1) 4.1 17:14:09 10° W 17:19:29 47° SSW 17:24:49 10° SE
GEOS 3 Rocket 3.9 17:17:48 10° SSE 17:22:52 66° SW 17:27:58 10° NW
USA 276 2.3 17:20:01 10° SW 17:22:53 43° SE 17:25:46 10° ENE
Terra 3.9 17:22:03 10° E 17:24:12 13° ENE 17:26:22 10° NNE
Resurs 01 Rocket 1.6 17:28:25 10° SSE 17:32:50 79° ENE 17:37:18 10° N
Cosmos 1624 Rocket 4.2 17:28:12 10° S 17:33:14 49° ESE 17:38:16 10° NNE
X-37B 0.1 17:31:23 10° WSW 17:34:11 75° SSE 17:37:00 10° ENE
Cosmos 2251 Rocket 4.0 17:31:32 10° NNW 17:36:50 63° WSW 17:42:07 10° S
H-2A R/B 4.0 17:33:32 10° SSW 17:36:55 30° W 17:40:18 10° NW
Cosmos 1190 Rocket 4.4 17:32:31 10° N 17:37:43 52° ENE 17:42:31 12° SE
Cosmos 407 Rocket 3.5 17:35:43 10° NNW 17:40:55 82° ENE 17:46:00 10° SSE
Cosmos 1300 3.0 17:37:12 10° NNW 17:40:58 65° W 17:44:42 10° S
Helios 1A Rocket 4.5 17:39:15 11° ESE 17:42:10 22° ENE 17:45:18 10° NNE
SPOT 3 Rocket 4.1 17:38:16 11° SE 17:43:00 45° ENE 17:47:57 10° N
Lacrosse 5 rocket 2.1 17:43:49 10° NNW 17:47:29 41° NE 17:50:55 12° ESE
ERS-1 Rocket 4.2 17:43:43 12° ESE 17:47:33 28° ENE 17:51:48 10° N
Cosmos 2315 Rocket 4.1 17:41:39 10° S 17:47:54 66° E 17:54:09 10° NNE
SL-24 R/B 4.2 17:45:14 11° SSE 17:49:14 67° ENE 17:53:46 10° N
Cosmos 1271 Rocket 3.9 17:48:22 10° NNE 17:51:53 29° ENE 17:54:18 16° SE
CZ-4B R/B 1.3 17:49:58 10° N 17:52:51 66° WNW 17:55:41 10° SSW
Cosmos 1140 Rocket 3.7 17:48:22 10° NNW 17:53:34 72° WSW 17:58:37 10° S
Cosmos 2056 Rocket 3.5 17:48:30 10° SSW 17:53:51 77° ESE 17:59:17 10° NNE
Cosmos 1709 Rocket 4.0 17:50:24 10° N 17:56:37 80° E 18:02:52 10° S
Cosmos 1025 Rocket 2.9 17:57:15 10° S 18:01:31 87° E 18:05:49 10° N
Cosmos 1420 Rocket 4.0 17:56:41 10° S 18:01:54 73° ESE 18:07:10 10° NNE
Cosmos 676 Rocket 4.3 17:59:58 10° N 18:05:12 54° ENE 18:08:54 19° SE
Atlas Centaur 2 3.5 18:03:00 10° SW 18:05:25 14° SSW 18:06:54 12° S
ARIANE 5 R/B 4.2 18:03:06 14° ESE 18:05:39 22° ENE 18:09:03 10° NNE
Cosmos 1455 Rocket 3.1 18:02:15 10° N 18:06:36 79° W 18:10:25 13° S
Cosmos 1607 4.1 18:05:11 10° SW 18:11:26 77° WNW 18:17:39 10° NNE
Meteor 2-5 Rocket 3.8 18:06:38 10° SSW 18:12:08 77° W 18:17:43 10° N
USA 267 3.4 18:07:28 10° ENE 18:13:45 48° SE 18:20:00 10° SSW
SPOT 1/Viking Rocket 4.3 18:09:15 10° S 18:14:13 50° W 18:19:14 10° NNW
USA 32 4.0 18:11:18 11° S 18:16:19 79° E 18:21:33 10° N
USA 245 3.6 18:13:30 17° SSE 18:17:19 90° ENE 18:21:20 10° NNW
Ariane Rocket 3.6 18:12:48 10° S 18:17:47 55° W 18:22:48 10° NNW
NOSS 2-1 (D) 4.5 18:18:14 10° NNW 18:22:51 56° NE 18:27:07 20° SE
Cosmos 1954 Rocket 4.0 18:18:29 10° NNW 18:23:47 86° ENE 18:27:11 22° SSE
Cosmos 1455 2.1 18:20:00 10° N 18:23:49 72° E 18:25:46 27° SSE
USA 102 2.5 18:27:16 78° SSE 18:27:31 90° ENE 18:36:55 10° NNW
Cosmos 1980 Rocket 4.4 18:25:47 10° NNE 18:28:35 14° NE 18:31:22 10° ENE
SPOT 5 2.6 18:27:58 25° SSE 18:30:34 79° ENE 18:34:55 10° N
Cosmos 1536 Rocket 3.6 18:29:01 25° SSE 18:31:23 59° E 18:35:39 10° NNE
Cosmos 1697 Rocket 4.2 18:27:15 10° N 18:31:49 25° NE 18:35:18 14° E
Cosmos 2228 3.9 18:33:18 10° N 18:37:10 33° ENE 18:38:29 27° ESE
Cosmos 1703 3.3 18:40:58 37° SSE 18:42:12 55° E 18:45:59 10° NNE
Cosmos 1656 3.9 18:36:51 10° NNW 18:42:15 57° ENE 18:45:04 28° SE
ATLAS 5 CENTAUR R/B 3.4 18:35:59 10° NW 18:45:35 44° WSW 18:47:44 24° S
Tiangong 1.0 18:42:43 10° W 18:45:52 64° SSW 18:46:11 59° SSE
ATLAS 2AS CENTAUR R/B 2.6 18:39:37 10° NW 18:46:43 85° SW 18:50:34 28° SSE
USA 234 4.5 18:41:03 10° E 18:46:56 37° NNE 18:52:49 10° NW
Spot 2 Rocket 3.7 18:45:34 24° S 18:48:39 69° WSW 18:53:45 10° NNW
Cosmos 1452 Rocket 3.4 18:51:27 18° SSW 18:55:26 86° ESE 19:00:43 10° NNE
Cosmos 1833 Rocket 2.8 18:54:28 28° S 18:57:14 55° ESE 19:02:42 10° NNE
USA 276 4.1 18:55:58 10° W 18:58:40 29° NNW 19:01:21 10° NE
Lacrosse 5 1.8 18:54:34 10° NW 18:59:43 86° SW 19:01:46 37° SE
Terra 1.9 18:59:09 33° S 19:01:19 75° WSW 19:06:06 10° NNW
Cosmos 2184 Rocket 3.9 18:57:30 10° N 19:03:43 88° W 19:07:03 29° S
Cosmos 1726 Rocket 4.4 19:02:29 10° N 19:06:27 34° ENE 19:07:13 32° E
Cosmos 1408 4.5 19:07:30 17° ENE 19:07:30 17° ENE 19:09:07 10° NE
Cosmos 1110 Rocket 3.9 19:05:21 32° S 19:07:47 70° ESE 19:13:03 10° NNE
X-37B 1.5 19:07:06 10° WNW 19:09:48 41° N 19:10:30 33° NE
SAR-Lupe-4 3.7 19:09:00 10° NNE 19:12:25 53° E 19:12:25 53° E
Helios 1A Rocket 4.3 19:15:23 22° SW 19:17:03 30° W 19:20:42 10° NW
Cosmos 2082 Rocket 2.9 19:19:12 33° ESE 19:19:53 34° ESE 19:24:59 10° NE
NOSS 2-1 (E) 4.5 19:16:27 10° NW 19:21:26 63° WSW 19:24:05 36° S
Meteor 2-1 Rocket 4.1 19:18:20 10° N 19:23:51 77° E 19:25:42 43° SSE
ERS-1 Rocket 4.1 19:23:42 22° SW 19:26:12 35° W 19:30:48 10° NNW
Lacrosse 5 rocket 2.7 19:23:04 10° WNW 19:26:22 25° SW 19:26:25 25° SW
SAR-Lupe-1 4.0 19:25:04 10° N 19:28:39 80° WNW 19:28:52 74° SW
RESURS DK-1 2.2 19:32:49 10° NNW 19:36:58 81° WSW 19:37:17 74° S
Cosmos 1892 Rocket 3.4 19:39:17 66° SSE 19:39:46 76° E 19:44:11 10° N
Cosmos 2058 Rocket 3.5 19:35:54 10° N 19:40:09 46° ENE 19:40:32 45° E
ARIANE 5 R/B 3.7 19:40:38 30° SW 19:41:51 36° W 19:45:59 10° NNW
Cosmos 192 4.2 19:42:47 59° SSE 19:43:35 71° ESE 19:48:27 10° NNE
Cosmos 1741 Rocket 4.4 19:38:53 10° NNW 19:44:05 55° WSW 19:45:31 42° SSW
Cosmos 968 Rocket 4.0 19:41:04 10° N 19:46:06 48° ENE 19:47:24 39° ESE
Cosmos 1825 3.7 19:49:35 26° ENE 19:49:35 26° ENE 19:52:00 10° NNE
ADEOS Rocket 4.2 19:46:35 27° ESE 19:49:55 43° ENE 19:56:57 10° N
Cosmos 2181 Rocket 4.1 19:50:34 44° SE 19:52:09 57° E 19:58:11 10° NNE
SL-8 R/B 4.1 19:48:47 10° WNW 19:53:34 60° NNE 19:55:34 33° E
Cosmos 1626 Rocket 4.5 19:56:12 35° E 19:56:12 35° E 19:59:49 10° NNE
GP-B 2.9 19:51:34 10° N 19:56:02 85° W 19:56:27 72° SSW
USA 267 3.9 19:50:27 10° NE 19:56:48 55° NNW 20:03:08 10° WSW
COSMOS 2406 3.2 19:55:52 39° SSW 19:58:09 82° WNW 20:03:57 10° NNE
ASTEX 1 3.7 19:56:59 10° N 20:01:56 61° W 20:03:16 44° SW
Cosmos 2369 3.8 19:59:04 10° NNW 20:04:49 73° ENE 20:06:14 51° SE
SL-16 R/B 4.2 20:01:48 10° N 20:05:55 20° NE 20:09:29 12° E
Cosmos 1869 4.2 20:03:00 10° N 20:06:16 38° ENE 20:06:16 38° ENE
Okean 1-7 Rocket 3.6 20:12:39 66° E 20:12:39 66° E 20:16:59 10° NNE
Cosmos 1980 Rocket 2.2 20:07:53 10° NNW 20:13:37 76° ENE 20:14:52 54° SE
Cosmos 1697 Rocket 3.0 20:10:38 10° NNW 20:16:05 52° WSW 20:17:01 47° SW
Cosmos 1633 4.4 20:17:41 23° NE 20:17:41 23° NE 20:19:30 10° NNE
Meteor 1-11 4.4 20:15:14 43° SW 20:16:56 64° WNW 20:22:31 10° N
Cosmos 1892 3.3 20:21:09 50° WNW 20:21:09 50° WNW 20:24:29 10° N
SJ 16-02 3.6 20:21:11 10° NNE 20:23:50 15° ENE 20:25:22 13° E
In-Cosmos 22 Rocket 4.1 20:24:42 57° SSW 20:25:54 81° W 20:31:26 10° N
Cosmos 2084 Rocket 3.5 20:22:43 10° NNW 20:26:17 65° NNE 20:26:17 65° NNE
Cosmos 1992 Rocket 3.9 20:28:05 67° SE 20:28:27 70° ESE 20:33:40 10° NNE
USA 234 3.1 20:27:05 43° SE 20:29:31 86° SW 20:36:07 10° NW
Cosmos 1932 4.3 20:30:16 54° SSW 20:31:44 78° ESE 20:38:03 10° NE
ATLAS 2AS CENTAUR R/B 4.5 20:32:56 10° WNW 20:36:27 15° WSW 20:37:59 14° WSW
Cosmos 1408 4.5 20:41:28 21° WNW 20:41:28 21° WNW 20:43:56 10° NNW
Lacrosse 5 4.1 20:39:27 10° W 20:40:57 13° WSW 20:40:57 13° WSW
Cosmos 1758 Rocket 3.9 20:43:51 56° ENE 20:43:51 56° ENE 20:47:44 10° NNE
Cosmos 2322 Rocket 3.8 20:40:30 10° N 20:45:21 28° NE 20:48:26 18° E
SL-8 Rocket 4.5 20:41:38 10° NNW 20:47:35 49° W 20:49:08 40° SW
ATLAS 5 CENTAUR R/B 2.1 20:49:01 43° NE 20:49:01 43° NE 20:51:51 10° NE
Cosmos 2278 3.6 20:43:49 10° NNW 20:49:34 86° ENE 20:50:31 64° SSE
Cosmos 1867 3.4 20:44:28 10° NNW 20:49:58 89° ENE 20:50:40 69° SE
PSLV R/B 4.2 20:46:59 10° NNE 20:51:29 51° E 20:51:29 51° E
ALOS 2 3.0 20:55:22 53° W 20:55:22 53° W 20:59:23 10° NNW
Cosmos 1812 Rocket 3.6 20:53:01 10° N 20:57:18 81° N 20:57:18 81° N
Cosmos 2082 Rocket 3.4 21:01:01 22° WSW 21:03:54 36° WNW 21:09:09 10° N
Aureole 1 Rocket 4.4 20:59:33 10° NNW 21:06:45 88° WSW 21:09:37 45° SSE
Cosmos 1602 Rocket 4.0 21:08:25 52° WNW 21:08:25 52° WNW 21:12:30 10° N
Cosmos 1825 4.4 21:24:12 17° WNW 21:24:12 17° WNW 21:26:38 10° NNW
Cosmos 2360 Rocket 3.4 21:19:48 10° N 21:25:01 36° ENE 21:28:11 21° ESE
SL-4 R/B 4.2 21:32:13 15° E 21:32:13 15° E 21:33:05 10° ENE
ERS-2 3.7 21:28:48 10° N 21:31:31 28° NW 21:31:31 28° NW
Cosmos-2242 3.7 21:27:56 10° NNW 21:31:28 44° WNW 21:31:28 44° WNW
Cosmos 1953 Rocket 3.6 21:32:39 72° ENE 21:32:39 72° ENE 21:36:57 10° NNE
ADEOS Rocket 4.0 21:33:32 34° SW 21:35:20 40° W 21:42:19 10° NNW
Cosmos 1934 Rocket 3.9 21:30:19 10° N 21:36:25 81° E 21:37:53 54° SSE
Cosmos 2058 3.2 21:40:13 59° NW 21:40:13 59° NW 21:44:04 10° N
CENTAUR R/B 4.3 21:42:29 13° ESE 21:43:36 14° ESE 21:46:31 10° ENE
Cosmos 1606 3.8 21:40:39 10° NNW 21:43:26 37° NW 21:43:26 37° NW
Cosmos 1825 Rocket 4.0 21:45:52 49° WNW 21:45:52 49° WNW 21:49:57 10° N
CRYOSAT 2 4.4 21:46:13 62° WSW 21:46:26 63° W 21:51:19 10° NNW
Cosmos 1339 Rocket 4.4 21:46:25 55° S 21:47:56 89° E 21:54:10 10° N
Cosmos 1535 Rocket 4.5 21:43:11 10° N 21:49:37 85° E 21:51:28 50° SSE
Cosmos 1076 Rocket 4.5 21:49:33 36° E 21:49:45 36° E 21:53:46 10° NNE
SL-16 R/B 2.1 21:44:56 10° NNW 21:50:34 69° WSW 21:51:18 61° SSW
Thor Agena Rocket 4.2 21:47:17 10° NNE 21:52:14 43° E 21:53:04 40° SE
Cosmos 972 Rocket 4.3 21:48:32 10° N 21:53:38 65° ENE 21:55:11 44° SE
Gbstr 26 Del rocket 3.3 21:57:06 60° ESE 21:57:06 60° ESE 22:02:09 10° ENE
Cosmos 1980 Rocket 4.1 21:53:48 10° WNW 21:56:37 15° W 21:56:37 15° W
DEBRIS 3.7 21:48:06 10° WNW 22:00:23 61° SW 22:00:55 57° SSW
Meteor 2-2 Rocket 4.5 21:55:58 10° NNW 22:01:53 61° W 22:03:05 51° SW
SJ 16-02 1.7 21:58:25 10° NNW 22:02:17 51° W 22:02:17 51° W
Cosmos 1842 Rocket 3.7 22:00:57 10° N 22:05:27 67° E 22:05:53 62° ESE
Cosmos 2219 Rocket 3.7 22:00:20 10° N 22:05:27 33° ENE 22:10:33 10° ESE
BREEZE-M DEB (TANK) 3.6 22:08:28 40° NW 22:09:13 48° NNW 22:15:40 10° ENE
CZ-2D R/B 3.0 22:06:02 10° NNE 22:10:52 37° E 22:12:17 31° SE
USA 276 4.1 22:08:43 10° NW 22:11:22 27° NNE 22:14:01 10° E
Cosmos 1340 Rocket 3.8 22:13:12 37° WNW 22:13:12 37° WNW 22:16:37 10° N
ISS -1.1 22:16:20 14° E 22:16:20 14° E 22:17:02 10° E
Cosmos 1605 Rocket 4.0 22:09:42 10° N 22:16:08 81° W 22:18:13 46° S
Resurs 1-4 Rocket 2.7 22:14:12 10° NNE 22:19:19 47° E 22:20:52 37° SE
Meteor 2-3 Rocket 3.6 22:18:43 52° S 22:20:10 82° E 22:25:47 10° NNE
Cosmos 44 3.0 22:20:46 70° S 22:21:11 77° ESE 22:25:42 10° NE
Cosmos 1763 Rocket 3.8 22:21:28 45° SSE 22:22:36 55° ESE 22:27:44 10° NNE
Cosmos 2221 2.9 22:24:31 10° NNW 22:28:39 48° W 22:28:39 48° W
Cosmos 2322 Rocket 2.5 22:24:11 10° NW 22:29:34 46° WSW 22:30:12 44° SW
Cosmos 2333 Rocket 2.4 22:24:54 10° NNW 22:30:40 70° ENE 22:34:09 25° SE
ATLAS 5 CENTAUR R/B 3.9 22:30:58 10° WNW 22:33:01 14° NNW 22:35:11 10° N
Cosmos 990 Rocket 4.4 22:29:38 10° NNW 22:34:43 58° ENE 22:37:39 25° SE
Cosmos 2151 2.8 22:34:34 72° S 22:35:01 89° WNW 22:39:20 10° N
Cosmos 2285 Rocket 4.3 22:33:30 35° SSE 22:36:04 59° ESE 22:42:23 10° NNE
Cosmos 1782 2.6 22:34:52 10° N 22:38:52 88° E 22:39:09 76° SSE
Cosmos 468 Rocket 4.1 22:38:36 46° S 22:40:04 70° ESE 22:45:22 10° NNE
Geosat 4.3 22:44:17 43° WSW 22:44:38 44° WSW 22:49:26 10° NW
MOS 1 Rocket 3.6 22:48:25 30° SSE 22:50:50 71° ENE 22:56:04 10° N
ADEOS II 2.4 22:54:58 10° NNE 23:00:10 58° E 23:02:39 30° SSE
Cosmos 2333 4.2 22:55:03 10° NNW 23:00:47 67° WSW 23:03:31 32° S
MOZ.5/SAFIR/RUBIN 5/SL-8 4.5 23:00:36 35° WSW 23:01:05 36° W 23:05:29 10° NNW
Cosmos 1898 Rocket 3.8 22:56:16 10° NNW 23:01:26 66° ENE 23:05:32 16° SSE
NPP 3.6 22:56:09 10° NNE 23:01:34 89° WNW 23:03:48 37° SSW
SL-24 DEB 4.4 23:01:14 46° SW 23:02:11 55° W 23:06:42 10° NNW
SL-16 R/B 2.5 22:58:16 23° SSE 23:02:28 88° ENE 23:08:47 10° NNW
NOSS 3-2 (A) 3.4 23:00:59 37° S 23:03:06 63° ESE 23:09:08 10° NE
SL-23 DEB 3.6 23:03:08 52° WNW 23:03:33 59° NNW 23:06:56 10° NE
Cosmos 2227 Rocket 4.3 23:00:34 10° SE 23:04:11 18° E 23:07:50 10° ENE
Cosmos 1184 Rocket 3.9 23:05:05 10° N 23:07:56 37° ENE 23:08:52 29° ESE
Cosmos 2360 Rocket 2.9 23:03:54 10° NW 23:08:56 34° WSW 23:09:53 32° SW
SL-4 R/B 2.8 23:07:38 27° WNW 23:09:08 41° NNW 23:12:49 10° NE
AQUA 3.8 23:05:15 10° NNE 23:10:02 85° E 23:11:56 37° S
Cosmos 540 Rocket 3.4 23:09:57 38° SSW 23:11:58 88° WNW 23:17:09 10° NNE
Cosmos 1812 3.0 23:08:43 10° NNW 23:12:23 45° W 23:12:38 44° WSW
OAO 3 Rocket 4.2 23:14:30 29° SSE 23:14:37 29° SSE 23:18:53 10° ESE
CZ-4 R/B 4.1 23:10:17 10° N 23:15:02 58° WNW 23:16:55 35° SW
SL-27 R/B 3.9 23:15:38 23° WNW 23:15:51 23° WNW 23:18:34 10° N
Cosmos 1937 Rocket 3.8 23:12:32 10° NNW 23:17:48 67° ENE 23:22:57 10° SSE
COSMOS 2428 2.7 23:12:27 10° NNW 23:18:12 84° ENE 23:23:55 10° SSE
COSMOS 2487 3.8 23:19:03 22° WNW 23:19:05 22° WNW 23:21:33 10° N
COSMOS 2455 4.4 23:23:27 10° NNW 23:29:00 37° NE 23:34:32 10° ESE
Cosmos 2237 Rocket 3.6 23:24:10 10° N 23:29:29 39° ENE 23:34:44 10° SE
CENTAUR R/B 2.4 23:29:38 28° SW 23:32:53 89° NW 23:39:47 10° NE
Cosmos 2297 Rocket 2.9 23:30:24 19° S 23:34:10 48° ESE 23:39:36 10° NE
IDEFIX/ARIANE 42P 2.5 23:31:09 10° N 23:36:22 78° WNW 23:39:24 26° SSW
Cosmos 2322 3.9 23:31:02 10° NNW 23:36:32 51° WSW 23:40:18 20° S
Cosmos 1340 2.5 23:33:20 10° N 23:37:04 86° W 23:39:00 27° S
EO 1 Del DPAF 3.0 23:36:12 10° NNE 23:39:40 78° ESE 23:41:10 32° S
Meteor 1-28 Rocket 3.3 23:43:23 32° SSW 23:44:47 52° W 23:48:24 10° NNW
Meteor 1-10 Rocket 4.3 23:39:08 10° NNW 23:45:04 82° W 23:50:36 12° S
Cosmos 1459 Rocket 4.3 23:40:20 10° NNW 23:46:02 44° W 23:49:35 22° SSW
USA 276 2.1 23:44:16 10° WNW 23:47:11 49° SW 23:50:05 10° SE
NOSS 3-2 (C) 3.4 23:43:49 23° SSW 23:47:14 70° ESE 23:53:23 10° NE
Helios 1B rocket 4.2 23:44:57 10° NE 23:48:31 28° E 23:52:03 10° SSE
Cosmos 2219 Rocket 2.8 23:44:14 10° NW 23:49:24 37° WSW 23:52:38 20° SSW
CZ-2D R/B 3.3 23:46:22 10° N 23:50:45 28° WNW 23:53:35 17° WSW
ISS -3.1 23:49:14 24° W 23:50:58 49° NNW 23:54:16 10° NE
Cosmos 1328 Rocket 3.5 23:48:17 10° N 23:52:44 86° W 23:56:33 14° S
CZ-2C R/B 4.2 23:49:00 10° NE 23:52:49 25° E 23:56:34 10° SSE
NOSS 0 Rocket 3.9 23:46:39 10° NNW 23:52:52 88° WSW 23:59:01 10° SSE
Helios 1A 3.0 23:51:51 18° S 23:54:51 63° W 23:59:01 10° NNW
